Douglas Bisbee, AZ

2:58 AM MST on November 24, 2017 (GMT -0700)
Bisbee Douglas International

Weather History for KDUG - March, 2012

Change the Weather History Date:

Thursday, March 8, 2012

  Actual Average Record
Temperature  
Mean Temperature 43 °F 53 °F  
Max Temperature 58 °F 71 °F 85 °F (1989)
Min Temperature 27 °F 36 °F 21 °F (1956)
Degree Days  
Heating Degree Days 22 12  
Month to date heating degree days 118 99  
Since 1 July heating degree days 1805 2135  
Cooling Degree Days 0 0  
Month to date cooling degree days 0 0  
Year to date cooling degree days 0 0  
Moisture  
Dew Point 10 °F    
Average Humidity 29    
Maximum Humidity 45    
Minimum Humidity 12    
Precipitation  
Precipitation 0.00 in 0.02 in 0.39 in (1962)
Month to date precipitation 0.00 0.16  
Year to date precipitation 0.23 1.55  
Snow  
Snow 0.00 in - - ()
Month to date snowfall 0.0  
Snow Depth 0.00 in    
Sea Level Pressure  
Sea Level Pressure 30.12 in    
Wind  
Wind Speed 10 mph (NNE)    
Max Wind Speed 23 mph    
Max Gust Speed 29 mph    
Visibility 10 miles    
Events      
T = Trace of Precipitation, MM = Missing Value Source: NWS Daily Summary

Daily Weather History Graph

Daily Weather History Graph

Search for Another Location

Airport or City:

Trip Planner

Search our weather history database for the weather conditions in past years. The results will help you decide how hot, cold, wet, or windy it might be!

Date:

Astronomy

Mar. 08, 2012 Rise Set
Actual Time 6:36 AM MST 6:22 PM MST
Civil Twilight 6:12 AM MST 6:46 PM MST
Nautical Twilight 5:44 AM MST 7:14 PM MST
Astronomical Twilight 5:15 AM MST 7:42 PM MST
Moon 7:06 PM MST (3/8) 6:26 AM MST (3/8)
Length of Visible Light 12h 34m
Length of Day
11h 45m
Full, 100% of the Moon is Illuminated
Mar 8
Full
Mar 14
Last Quarter
Mar 22
New
Mar 30
First Quarter
Apr 6
Full

Hourly Weather History & Observations

Time (MST) Temp. Windchill Dew Point Humidity Pressure Visibility Wind Dir Wind Speed Gust Speed Precip Events Conditions
12:56 AM 32.0 °F 24.2 °F 10.0 °F 40% 29.92 in 10.0 mi NNW 9.2 mph - N/A   Clear
1:56 AM 34.0 °F 26.0 °F 6.1 °F 31% 29.93 in 10.0 mi North 10.4 mph - N/A   Clear
2:56 AM 33.1 °F 25.5 °F 5.0 °F 31% 29.94 in 10.0 mi North 9.2 mph - N/A   Clear
3:56 AM 30.0 °F 21.7 °F 5.0 °F 35% 29.97 in 10.0 mi North 9.2 mph - N/A   Clear
4:56 AM 28.0 °F 20.0 °F 3.9 °F 36% 30.01 in 10.0 mi North 8.1 mph - N/A   Clear
5:56 AM 28.9 °F 21.9 °F 3.9 °F 35% 30.05 in 10.0 mi NNW 6.9 mph - N/A   Clear
6:56 AM 27.0 °F 20.5 °F 3.9 °F 37% 30.11 in 10.0 mi NNW 5.8 mph - N/A   Clear
7:56 AM 35.1 °F 30.1 °F 6.1 °F 30% 30.12 in 10.0 mi NNW 5.8 mph - N/A   Clear
8:56 AM 41.0 °F 36.4 °F 8.1 °F 26% 30.13 in 10.0 mi North 6.9 mph - N/A   Clear
9:56 AM 46.0 °F 40.2 °F 12.0 °F 25% 30.14 in 10.0 mi North 12.7 mph - N/A   Clear
10:56 AM 48.9 °F - 12.0 °F 23% 30.15 in 10.0 mi North 10.4 mph - N/A   Clear
11:56 AM 51.1 °F - 14.0 °F 23% 30.14 in 10.0 mi North 15.0 mph 23.0 mph N/A   Clear
12:56 PM 54.0 °F - 10.9 °F 18% 30.14 in 10.0 mi North 10.4 mph 20.7 mph N/A   Clear
1:56 PM 54.0 °F - 8.1 °F 16% 30.13 in 10.0 mi Variable 5.8 mph 19.6 mph N/A   Clear
2:56 PM 55.9 °F - 6.1 °F 14% 30.12 in 10.0 mi NNW 8.1 mph - N/A   Clear
3:56 PM 55.9 °F - 3.0 °F 12% 30.13 in 10.0 mi Variable 4.6 mph - N/A   Clear
4:56 PM 55.9 °F - 8.1 °F 15% 30.16 in 10.0 mi East 5.8 mph - N/A   Clear
5:56 PM 54.0 °F - 9.0 °F 17% 30.19 in 10.0 mi East 11.5 mph - N/A   Clear
6:56 PM 51.1 °F - 9.0 °F 18% 30.22 in 10.0 mi East 11.5 mph - N/A   Clear
7:56 PM 48.0 °F - 9.0 °F 21% 30.24 in 10.0 mi ENE 9.2 mph - N/A   Clear
8:56 PM 45.0 °F 39.7 °F 14.0 °F 29% 30.25 in 10.0 mi NE 10.4 mph - N/A   Clear
9:56 PM 46.9 °F - 21.9 °F 37% 30.25 in 10.0 mi East 15.0 mph - N/A   Clear
10:56 PM 45.0 °F 36.6 °F 24.1 °F 44% 30.26 in 10.0 mi East 21.9 mph - N/A   Clear
11:56 PM 44.1 °F 37.7 °F 24.1 °F 45% 30.26 in 10.0 mi ENE 12.7 mph - N/A   Clear